Overview Statistics Trail Chart Weather Telemetry Raw packets
 

This is the latest recevied weather packets stored in our database for station/object K4KMJ. If no packets are shown the sender has not sent any weather packets the latest 10 day(s).

<< 58 59 60 61 62 63 64 >>
Time Temp. Humidity Pressure Rain* Wind** Luminosity Snow
1788268774 28.33° C 96% 1019 hPa 0 mm - 299 W/m² -
1788268473 28.33° C 97% 1018.9 hPa 0 mm - 279 W/m² -
1788268169 27.78° C 98% 1018.8 hPa 0 mm - 258 W/m² -
1788267869 28.33° C 99% 1019.1 hPa 0 mm - 229 W/m² -
1788267566 28.33° C 99% 1019 hPa 0 mm - 227 W/m² -
1788267261 27.78° C 99% 1018.8 hPa 0 mm - 208 W/m² -
1788266960 27.78° C 99% 1019.1 hPa 0 mm - 246 W/m² -
1788266656 27.22° C 99% 1018.9 hPa 0 mm - 280 W/m² -
1788266351 26.67° C 99% 1018.8 hPa 0 mm - 128 W/m² -
1788266046 26.11° C 99% 1019 hPa 0 mm - 116 W/m² -
1788265744 25.56° C 99% 1018.7 hPa 0 mm - 107 W/m² -
1788265439 25° C 99% 1018.8 hPa 0 mm - 53 W/m² -
1788265138 25° C 99% 1018.8 hPa 0 mm - 38 W/m² -
1788264833 25° C 99% 1018.6 hPa 0 mm - 36 W/m² -
1788264528 25° C 99% 1018.4 hPa 0 mm - 36 W/m² -
1788264222 25° C 99% 1018.3 hPa 0 mm - 30 W/m² -
1788263918 25° C 99% 1018.3 hPa 0 mm - 27 W/m² -
1788263613 25° C 99% 1018.3 hPa 0 mm - 27 W/m² -
1788263311 25.56° C 99% 1018.2 hPa 0 mm - 29 W/m² -
1788263006 25° C 99% 1018.3 hPa 0 mm - 32 W/m² -
1788262704 25° C 99% 1018.2 hPa 0 mm - 35 W/m² -
1788262404 25° C 99% 1018.1 hPa 0 mm - 30 W/m² -
1788262099 24.44° C 99% 1018.2 hPa 0 mm - 25 W/m² -
1788261799 24.44° C 99% 1017.9 hPa 0 mm - 18 W/m² -
1788261499 24.44° C 99% 1018.2 hPa 0 mm - 14 W/m² -

* Rain latest hour (hover to see other rain measurements)
** Current wind speed in m/s (hover to see current wind gust speed)